{"data":{"norad_id":58826,"epoch":"2026-09-20T14:32:44.707200Z","epoch_age_seconds":143444,"freshness":"FRESH","line1":"1 58826U 24017A   26263.60607300  .00000253  00000+0  18622-4 0  9996","line2":"2 58826  53.1621  17.1985 0001078  85.7488 274.3638 15.34390750150046","mean_motion":15.3439075,"eccentricity":0.0001078,"inclination_deg":53.1621,"raan_deg":17.1985,"arg_perigee_deg":85.7488,"mean_anomaly_deg":274.3638,"bstar":1.8622e-5,"rev_number":15004,"period_min":93.848323837979,"perigee_km":461.99328775292,"apogee_km":463.46817883622,"semimajor_km":6840.8677332946,"source":"CELESTRAK","updated_at":"2026-09-21T09:00:33.982691Z"}}